User: anonymous   Login
Location: Unspecified
(0.0000°N, 0.0000°E)
Time: 04:46:02
(UTC+01:00)
Language:

Cosmos 2219 - Orbit

View from above orbital plane
View from above orbital plane
View from above satellite
View from above satellite

Ground track
Ground track

The orbit data is extracted from the following two-line orbital elements,

1 22219U 92076A   14356.17925155  .00000424  00000-0  24948-3 0  6823
2 22219 071.0614 294.3133 0019191 330.2328 124.8638 14.13512173139906
Epoch (UTC): 22 December 2014 04:18:07
Eccentricity: 0.0019191
inclination: 71.0614°
perigee height: 833 km
apogee height: 861 km
right ascension of ascending node: 294.3133°
argument of perigee: 330.2328°
revolutions per day: 14.13512173
mean anomaly at epoch: 124.8638°
orbit number at epoch: 13990

The dashed part of the orbit path shows where the satellite is in the earth's shadow,  

DLR